User: anonymous   Login
Location: Unspecified
(0.0000°N, 0.0000°E)
Time: 16:39:56
(UTC+02:00)
Language:

Cosmos 2279 Rocket - Orbit

View from above orbital plane
View from above orbital plane
View from above satellite
View from above satellite

Ground track
Ground track

The orbit data is extracted from the following two-line orbital elements,

1 23093U 94024B   17204.82690050 +.00000080 +00000-0 +65212-4 0  9998
2 23093 082.9464 087.2508 0008723 261.1775 098.8395 13.77732122636474
Epoch (UTC): 23 July 2017 19:50:44
Eccentricity: 0.0008723
inclination: 82.9464°
perigee height: 965 km
apogee height: 978 km
right ascension of ascending node: 87.2508°
argument of perigee: 261.1775°
revolutions per day: 13.77732122
mean anomaly at epoch: 98.8395°
orbit number at epoch: 63647

The dashed part of the orbit path shows where the satellite is in the earth's shadow,  

DLR